Погода Сурсари/ Гогланд Остров

Поиск расширенной информации на нашем сайте:

Полезная информация:

Новости сайта



02.01.2020
Опубликован Долгосрочный прогноз погоды по городам России и ближнего зарубежья на январь 2020 года.
Карты: Прогноз на январь и февраль 2020 года, Сравнение прогнозируемой аномалии приземной температуры воздуха на январь 2020 года по разным моделям.




Погода Сурсари/ Гогланд Остров - сегодня

Время (UTC), дата Ветер
(°,м/с) 
Видим.   Явления Облачность Т
(°С)
Тd
(°С)
f(%) Тe
(°С)
Pmin
(гПа)
dP
(гПа)
Po
(мм)
O2
(г/м3)
Тmin Tmax R s Состояние
почвы
15 27.11.20 060 (СВ) 20000 м    н/о 
+2.1 +1.7 97 +1  1013.1  2.4  759  303      0.4     
18 27.11.20 050 (СВ) 20000 м    н/о 
+1.8 +0.5 91 +3        +2.5  0.4     
21 27.11.20 050 (СВ) 20000 м    н/о 
+0.8 +0.1 95 +1               
00 28.11.20 060 (СВ) 20000 м    н/о 
+1 +0.3 95 +2               
09 28.11.20 070 (В) 20000 м    н/о 
+1.6 +1 96 +2  1026.3  2.4  769  308           
12 28.11.20 070 (В) 20000 м    н/о 
+1.4 +0.7 95 +2  1027.3  769  308           
15 28.11.20 100 (В) 20000 м    н/о 
+1.4 +0.2 92 +1  1028.8  1.5  771  309         
21 28.11.20 090 (В) 20000 м    н/о 
+0.8 -0.7 90 1030.7  0.8  772  310           
00 29.11.20 090 (В) 20000 м    н/о 
+0.4 -1.4 88 1031.1  0.4  772  311           
09 29.11.20 080 (В) 20000 м    н/о 
-0.4 -2.1 88 1031.3  -0.1  772  312           
12 29.11.20 100 (В) 20000 м    н/о 
-0.5 -2.6 86 -1  1030.5  -0.8  772  312           
15 29.11.20 090 (В) 20000 м    н/о 
-1.1 -3 87 -2  1029.5  -1  771  312           
21 29.11.20 100 (В) 20000 м    н/о 
+0 -1.9 87 -1  1026.6  769  310           
00 30.11.20 090 (В) 20000 м    н/о 
-0.5 -2.2 88 -1  1024.9  -1.7  768  310           
09 30.11.20 170 (Ю) 19000 м    н/о 
+2 +0.4 89 +3  1021.7  -0.4  765  306           
12 30.11.20 200 (Ю) 20000 м    н/о 
+1.7 -2.2 75 +1  1020.4  -1.3  764  306           
15 30.11.20 150 (ЮВ) 20000 м    н/о 
+1 -2.1 80 1019.7  -0.7  764  307      0.1     
21 30.11.20 180 (Ю) 20000 м    10/10 300 м 
[Sc]
+0.8 -2.2 80 +1  1017.9  -0.5  762  307           
00 01.12.20 180 (Ю) 20000 м    10/10 300 м 
[Sc]
+0.8 -2.2 80 +1  1017.9  -0.5  762  307           
09 01.12.20 230 (ЮЗ) 8-11{11}  20000 м    н/о 
+2.4 +1.1 91 -1  1020.8  1.9  765  305           
21 01.12.20 240 (ЮЗ) 10-12{12}  20000 м    н/о 
+4.2 +2.7 90 1027.2  1.5  769  305           
09 02.12.20 240 (ЮЗ) 8-10{10}  14000 м    н/о 
+2 +0.6 90 -2  1031.6  773  309           
15 02.12.20 170 (Ю) 20000 м    н/о 
-0.2 -2.2 86 1031  -0.8  772  312           
21 02.12.20 170 (Ю) 20000 м    н/о 
-1.2 -2.8 89 -1  1030  -0.4  771  313           
00 03.12.20 150 (ЮВ) 20000 м    н/о 
-0.9 -3.8 81 1028.9  -1.1  771  312           
Время (UTC), дата Ветер
(°,м/с) 
Видим.   Явления Облачность Т
(°С)
Тd
(°С)
f(%) Тe
(°С)
Pmin
(гПа)
dP
(гПа)
Po
(мм)
O2
(г/м3)
Тmin Tmax R s Состояние
почвы

Для получения пояснительной информации подведите курсор к названию столбца.

ПОГОДА Сурсари/ Гогланд Остров - архив

Всё, что Вы хотите узнать о погоде Сурсари/ Гогланд Остров - удобно и подробно!

Выберите нужную дату (начиная с 1 января 2019* года) и нажмите кнопку "Найти".
Будут отображены архивные сводки погоды по пункту Сурсари/ Гогланд Остров, начиная с указанной даты.


Отображать данные в формате CSV (для использования в таблицах Excel)


Внимание! Наш архив погоды предназначен исключительно для личного некоммерческого использования в познавательных целях. Если Вам необходимы официальные справки о состоянии погоды (для производственных, юридических, коммерческих и т.п. целей), обращайтесь в органы Росгидромета.

*Примечание: данная дата относится к архиву по метеостанциям СССР (Россия, СНГ, Балтия).
Архив по метеостанциям Зарубежной Европы и Азии (кроме Китая) хранится 10 дней, по другим регионам земного шара (Китай, Африка, Америка, Австралия, Океания) - 1 день.

Сурсари/ Гогланд Остров - район местоположения метеостанции


Название, широта, долгота, высота метеостанции:
Сурсари/ Гогланд Остров 60.1°ш. 27°д. 6 м над ур. моря [Российская Федерация]

Дополнительная информация

В oтличие oт бoльшинства пoгoдных сайтoв мы публикуем пoдрoбную метеoинфoрмацию в детальнoм прoфессиoнальнoм фoрмате.

Характеристики температуры и влажнoсти вoздуха измеряются на высoте 2 м в тени вдали oт зданий и деревьев.
Скoрoсть ветра измеряется на высoте 10 м (на урoвне рoста челoвека скoрoсть ветра ниже в 1.5-2 раза). Если метеoстанция нахoдится в гoрoде или в лесу, тo скoрoсть ветра занижена на 2-4 м/с пo сравнению с oткрытым местoм. Скoрoсть ветра над акватoриями крупных рек и oзёр, а также на вершинах хoлмoв на 2-5 м/с выше, чем в oбычных услoвиях.
Атмoсфернoе давление в разных тoчках местнoсти мoжет значительнo oтличаться oт давления на метеoстанции, в зависимoсти oт услoвий рельефа (при пoдъёме на 10 м давление пoнижается примернo на 1 мм рт.ст.).